GW2905 Weather Reports


Display with metric or nautical units.
time (UTC)temp
F
wind
direction
speed
MPH
gust
MPH
rain 1hr
in
rain 24hr
in
rain mn
in
humidity
%
barometer
mb
20260903180059 56 0 1.0 8.0 0.00 0.33 0.16 87 1009.4
20260903174559 56 215 1.0 8.0 0.00 0.39 0.16 89 1009.4
20260903173101 56 158 2.0 8.0 0.00 0.39 0.16 91 1009.3
20260903171605 55 155 1.0 6.0 0.06 0.39 0.16 92 1009.4
20260903170117 55 159 1.0 6.0 0.07 0.39 0.16 94 1009.7
20260903164609 53 124 0.0 3.0 0.07 0.39 0.16 95 1009.7
20260903163056 52 0 1.0 4.0 0.08 0.39 0.16 94 1009.7
20260903161604 53 0 0.0 3.0 0.03 0.33 0.10 94 1009.8
20260903160107 53 0 0.0 7.0 0.02 0.32 0.09 94 1009.7
20260903154607 52 0 0.0 7.0 0.02 0.32 0.09 94 1009.6
20260903153104 52 0 1.0 11.0 0.01 0.31 0.08 94 1009.6
20260903151559 52 154 2.0 8.0 0.00 0.30 0.07 94 1009.6
20260903150113 52 0 1.0 11.0 0.00 0.30 0.07 94 1009.4
20260903144622 53 108 2.0 8.0 0.01 0.30 0.07 94 1009.4
20260903143058 53 273 1.0 6.0 0.01 0.30 0.07 94 1009.3
20260903141604 53 65 0.0 9.0 0.03 0.30 0.07 94 1009.1
20260903140100 53 110 1.0 10.0 0.05 0.30 0.07 94 1009.0
20260903134628 53 119 0.0 4.0 0.05 0.29 0.06 94 1008.9
20260903133112 53 114 0.0 8.0 0.06 0.29 0.06 93 1008.8
20260903131601 53 94 1.0 6.0 0.04 0.27 0.04 93 1008.7
20260903130104 53 0 0.0 8.0 0.02 0.25 0.02 92 1008.8
20260903124602 53 0 3.0 9.0 0.01 0.24 0.01 90 1008.8
20260903123059 54 110 1.0 7.0 0.00 0.23 0.00 89 1008.9
20260903121557 54 81 2.0 8.0 0.00 0.23 0.00 89 1008.7
20260903120118 53 0 0.0 6.0 0.00 0.23 0.00 90 1008.9
20260903114603 53 221 1.0 8.0 0.00 0.23 0.00 90 1008.8
20260903113059 53 82 2.0 10.0 0.00 0.23 0.00 90 1008.8
20260903111559 54 109 1.0 8.0 0.00 0.23 0.00 91 1008.8
20260903110106 54 0 2.0 7.0 0.00 0.23 0.00 91 1008.8
20260903104619 54 140 2.0 7.0 0.00 0.23 0.00 91 1008.9
20260903103100 54 103 1.0 7.0 0.00 0.23 0.00 92 1009.0
20260903101603 54 261 1.0 7.0 0.00 0.23 0.00 92 1009.0
20260903100106 53 0 1.0 7.0 0.00 0.23 0.00 92 1008.7
20260903094622 53 127 0.0 4.0 0.00 0.23 0.00 93 1008.8
20260903093058 54 87 0.0 7.0 0.00 0.23 0.00 93 1008.7
20260903091615 54 222 0.0 3.0 0.00 0.23 0.00 93 1008.7
20260903090058 54 0 0.0 8.0 0.00 0.23 0.00 93 1009.0
20260903084602 54 0 0.0 8.0 0.00 0.23 0.00 93 1009.1
20260903083103 54 0 0.0 6.0 0.00 0.23 0.00 93 1009.0
20260903081556 54 0 0.0 7.0 0.00 0.23 0.00 93 1009.1
20260903080059 54 265 0.0 7.0 0.00 0.23 0.00 93 1009.1
20260903074603 54 0 1.0 8.0 0.00 0.23 0.00 93 1009.2
20260903073100 54 0 0.0 9.0 0.00 0.23 0.00 93 1009.1
20260903071614 54 0 0.0 7.0 0.00 0.23 0.00 93 1009.0
20260903064600 54 0 0.0 5.0 0.00 0.23 0.23 93 1009.0
20260903063110 54 0 0.0 7.0 0.00 0.23 0.23 93 1009.1
20260903061603 55 161 0.0 7.0 0.00 0.23 0.23 93 1009.0
20260903060103 55 0 0.0 7.0 0.00 0.23 0.23 93 1009.1
20260903054558 55 0 0.0 9.0 0.00 0.23 0.23 94 1009.2
20260903053114 55 0 0.0 6.0 0.00 0.23 0.23 94 1009.1
20260903051601 55 0 0.0 4.0 0.00 0.23 0.23 94 1009.1
20260903050106 55 0 0.0 7.0 0.00 0.23 0.23 94 1009.1
20260903044600 55 0 0.0 0.0 0.00 0.23 0.23 94 1009.1
20260903043111 55 145 1.0 5.0 0.00 0.23 0.23 94 1008.8
20260903041603 55 82 0.0 4.0 0.00 0.23 0.23 93 1008.6
20260903040108 56 64 0.0 5.0 0.00 0.23 0.23 93 1008.3
20260903034608 56 0 0.0 4.0 0.00 0.23 0.23 93 1008.1
20260903033100 56 185 0.0 2.0 0.00 0.23 0.23 92 1008.0
20260903031623 56 0 0.0 1.0 0.00 0.23 0.23 92 1007.8
20260903030059 56 0 0.0 3.0 0.00 0.23 0.23 91 1007.6
20260903024555 57 233 0.0 4.0 0.00 0.23 0.23 90 1007.5
20260903023055 58 77 1.0 5.0 0.00 0.23 0.23 90 1007.4
20260903021559 58 155 0.0 4.0 0.00 0.23 0.23 87 1007.3
20260903020107 58 221 0.0 3.0 0.00 0.23 0.23 89 1007.1
20260903014601 58 0 1.0 7.0 0.00 0.23 0.23 88 1006.9
20260903013102 58 201 2.0 6.0 0.00 0.23 0.23 89 1007.0
20260903011602 58 159 1.0 4.0 0.00 0.23 0.23 90 1006.8
20260903010104 58 0 1.0 7.0 0.00 0.23 0.23 91 1006.7
20260903004558 58 260 1.0 6.0 0.00 0.23 0.23 92 1006.6
20260903003102 57 0 0.0 6.0 0.00 0.23 0.23 92 1006.6
20260903001610 58 0 0.0 5.0 0.00 0.23 0.23 93 1006.4
20260903000103 58 213 1.0 5.0 0.01 0.23 0.23 94 1006.4
20260902234600 57 0 1.0 6.0 0.04 0.23 0.23 94 1006.2
20260902233103 57 229 1.0 5.0 0.04 0.23 0.23 94 1006.3
20260902231601 57 0 1.0 6.0 0.04 0.23 0.23 94 1006.2
20260902224556 57 132 2.0 9.0 0.00 0.19 0.19 92 1005.9
20260902223102 57 209 3.0 11.0 0.00 0.19 0.19 92 1005.8
20260902221608 57 241 2.0 8.0 0.01 0.19 0.19 92 1006.0
20260902220104 57 164 1.0 10.0 0.01 0.19 0.19 92 1005.7
20260902214604 56 180 2.0 9.0 0.01 0.19 0.19 92 1005.8
20260902213059 56 176 2.0 10.0 0.01 0.19 0.19 93 1005.7
20260902211611 56 180 2.0 11.0 0.00 0.18 0.18 92 1005.7
20260902210118 56 145 3.0 15.0 0.01 0.18 0.18 91 1005.7
20260902204603 56 123 1.0 11.0 0.01 0.18 0.18 91 1005.7
20260902203059 56 0 0.0 0.0 0.04 0.18 0.18 91 1005.6
20260902201612 56 0 0.0 0.0 0.07 0.18 0.18 92 1005.5
20260902200107 56 0 0.0 0.0 0.08 0.17 0.17 92 1005.5
20260902194559 56 0 0.0 0.0 0.07 0.16 0.16 92 1005.6
20260902193101 56 0 0.0 0.0 0.06 0.14 0.14 92 1005.8
20260902191605 56 0 0.0 0.0 0.04 0.11 0.11 91 1006.0
20260902190104 56 0 0.0 0.0 0.03 0.09 0.09 91 1006.0
20260902184600 56 0 0.0 0.0 0.04 0.09 0.09 91 1006.1
20260902183105 56 0 0.0 0.0 0.06 0.08 0.08 91 1006.1
20260902181606 56 0 0.0 0.0 0.06 0.07 0.07 91 1006.6